N1LTP Weather Reports


Display with metric or nautical units.
time (UTC)temp
F
wind
direction
speed
MPH
gust
MPH
rain 1hr
in
rain 24hr
in
rain mn
in
humidity
%
barometer
mb
20260504081509 41 315 0.0 0.0 0.00 0.00 0.00 81 1010.6
20260504044546 36 315 0.0 0.0 0.00 0.00 0.00 83 1010.6
20260504043047 36 315 0.0 1.0 0.00 0.00 0.00 83 1010.5
20260504041543 36 315 0.0 0.0 0.00 0.00 0.00 82 1010.4
20260504040041 36 315 0.0 0.0 0.00 0.00 0.00 82 1010.2
20260504034539 36 315 0.0 0.0 0.00 0.00 0.00 81 1010.2
20260504033037 37 315 0.0 0.0 0.00 0.00 0.00 82 1010.0
20260504031550 37 315 0.0 0.0 0.00 0.00 0.00 79 1010.0
20260504030035 38 315 0.0 0.0 0.00 0.00 0.00 78 1009.9
20260504024532 38 315 0.0 0.0 0.00 0.00 0.00 75 1009.9
20260504023030 39 315 0.0 0.0 0.00 0.00 0.00 74 1009.8
20260504021528 40 315 0.0 0.0 0.00 0.00 0.00 73 1009.8
20260504020025 41 315 0.0 0.0 0.00 0.00 0.00 70 1009.8
20260504014525 42 315 0.0 0.0 0.00 0.00 0.00 67 1009.7
20260504013016 43 315 0.0 0.0 0.00 0.00 0.00 66 1009.5
20260504011515 44 315 0.0 0.0 0.00 0.00 0.00 64 1009.3
20260504010015 45 315 0.0 0.0 0.00 0.00 0.00 60 1009.1
20260504004519 47 315 0.0 0.0 0.00 0.00 0.00 55 1008.9
20260504003013 48 315 0.0 0.0 0.00 0.00 0.00 52 1008.8
20260504001513 49 315 0.0 3.0 0.00 0.00 0.00 48 1008.5
20260504000012 50 330 1.0 5.0 0.00 0.00 0.00 46 1008.4
20260503234512 51 341 3.0 9.0 0.00 0.00 0.00 43 1008.2
20260503233016 51 338 4.0 11.0 0.00 0.00 0.00 43 1008.1
20260503231511 51 342 3.0 8.0 0.00 0.00 0.00 43 1007.9
20260503230011 52 281 1.0 9.0 0.00 0.00 0.00 45 1007.6
20260503224509 52 308 3.0 15.0 0.00 0.00 0.00 43 1007.5
20260503223009 52 328 5.0 14.0 0.00 0.00 0.00 42 1007.2
20260503221512 52 280 5.0 13.0 0.00 0.00 0.00 43 1007.0
20260503220007 52 290 8.0 18.0 0.00 0.00 0.00 42 1006.9
20260503214508 52 312 5.0 17.0 0.00 0.00 0.00 44 1006.7
20260503213006 53 252 7.0 15.0 0.00 0.00 0.00 43 1006.3
20260503211505 53 312 4.0 16.0 0.00 0.00 0.00 42 1006.2
20260503210005 53 308 2.0 14.0 0.00 0.00 0.00 45 1005.9
20260503204505 53 278 6.0 16.0 0.00 0.00 0.00 43 1005.7
20260503203003 53 281 6.0 12.0 0.00 0.00 0.00 45 1005.5
20260503201502 53 333 3.0 15.0 0.00 0.00 0.00 45 1005.5
20260503200059 53 327 4.0 17.0 0.00 0.00 0.00 45 1005.5
20260503194601 53 322 7.0 14.0 0.00 0.00 0.00 44 1005.5
20260503193057 52 325 1.0 11.0 0.00 0.00 0.00 49 1005.4
20260503191556 52 304 4.0 14.0 0.00 0.00 0.00 49 1005.6
20260503190055 52 306 2.0 8.0 0.00 0.00 0.00 51 1005.6
20260503184557 53 292 1.0 5.0 0.00 0.00 0.00 52 1005.5
20260503183052 52 315 1.0 10.0 0.00 0.00 0.00 53 1005.6
20260503181551 51 250 6.0 13.0 0.00 0.00 0.00 51 1005.6
20260503180059 52 316 5.0 13.0 0.00 0.00 0.00 52 1005.6
20260503174551 52 309 4.0 11.0 0.00 0.00 0.00 51 1005.5
20260503173046 51 294 2.0 11.0 0.00 0.00 0.00 58 1005.5
20260503171547 49 298 3.0 11.0 0.00 0.00 0.00 61 1005.7